Regional Weather Roundup
Issued by NWS

Home | Current Version | Previous Version | Text Only | Print | Product List | Glossary Off
Versions: 1 2 3 4 5 6 7 8 9 10 11 12 13 14 15 16 17 18 19 20 21 22 23 24 25 26 27 28 29 30 31 32 33 34 35 36 37 38 39 40 41 42 43 44 45 46 47 48 49 50

000
ASUS43 KDTX 290710
RWRMI
MICHIGAN HOURLY REGIONAL WEATHER ROUNDUP
NATIONAL WEATHER SERVICE DETROIT/PONTIAC MI
300 AM EDT TUE JUL 29 2014

NOTE: "FAIR" INDICATES FEW OR NO CLOUDS BELOW 12,000 FEET WITH NO
SIGNIFICANT WEATHER AND/OR OBSTRUCTION TO VISIBILITY.

MIZ047>049-052>055-059>063-066>070-074>076-081>083-290800-
SOUTHEAST LOWER MICHIGAN

CITY           SKY/WX    TMP DP  RH WIND       PRES   REMARKS
ADRIAN         CLEAR     50  48  93 CALM      30.01F
ALMA           CLEAR     48  47  96 W3        30.00S
ANN ARBOR      MOCLDY    44  42  93 CALM      30.00S FOG
BAD AXE        CLEAR     47  46  97 CALM      29.96F
DETROIT CITY   MOCLDY    57  47  69 W3        29.99S
FLINT          PTCLDY    53  46  77 W5        29.99F
GROSSE ILE     CLOUDY    55  50  82 W6        29.98F
HILLSDALE      CLEAR     48  48 100 CALM      30.01F
HOWELL         CLEAR     48  46  93 SW5       29.99F

CITY           SKY/WX    TMP DP  RH WIND       PRES   REMARKS
JACKSON        CLEAR     50  47  89 W3        30.01F
LAMBERTVILLE   CLEAR     52  48  87 CALM      30.00F
LANSING        CLEAR     50  47  89 W3        30.00F
LAPEER         NOT AVBL
MASON          CLEAR     47  46  93 CALM      30.00F
MONROE         CLEAR     52  48  87 CALM      29.98F
MT. CLEMENS    CLOUDY    56  47  71 W6        29.97S
PONTIAC        MOCLDY    53  47  79 CALM      29.98F
PORT HOPE        N/A     56  49  77 W6        29.93F
PORT HURON     CLOUDY    54  50  87 CALM      29.97S
TRI CITIES     CLEAR     52  48  86 SW6       29.99F
YPSILANTI      PTCLDY    52  46  80 CALM      30.00F
$$
MIZ043>046-050>051-056>058-064>065-071>073-077>080-290800-
SOUTHWEST LOWER MICHIGAN

CITY           SKY/WX    TMP DP  RH WIND       PRES   REMARKS
BATTLE CREEK   CLEAR     53  49  86 SW3       30.02F
BENTON HARBOR  CLEAR     47  46  97 CALM      30.03F
BIG RAPIDS     CLEAR     48  48 100 CALM      30.00F
COLDWATER      CLEAR     51  49  95 CALM      30.02F
HOLLAND        CLEAR     51  47  86 W3        30.02F
GRAND RAPIDS   CLEAR     54  51  90 W6        30.02S
KALAMAZOO      CLEAR     50  47  89 CALM      30.02F
MARSHALL       CLEAR     48  47  97 CALM      30.01F
MUSKEGON       MOCLDY    51  46  83 CALM      30.02F
$$
MIZ016>042-290800-
NORTHERN LOWER MICHIGAN

CITY           SKY/WX    TMP DP  RH WIND       PRES   REMARKS
ALPENA         CLOUDY    54  51  90 W3        29.93F
BEAVER ISLAND  MOCLDY    58  56  94 W3        29.94F
BELLAIRE       CLOUDY    53  51  92 CALM      29.95F
CADILLAC       PTCLDY    48  46  93 CALM      29.98F
CHARLEVOIX     CLOUDY    59  54  83 SW5       29.97F
FRANKFORT      CLOUDY    56  52  87 CALM      29.98F
GAYLORD        MOCLDY    50  48  93 SW3       29.96F
GRAYLING       PTCLDY    49  49  99 W6        29.98F
HARBOR SPRINGS MOCLDY    57  53  85 CALM      29.94F
HOUGHTON LAKE  PTCLDY    51  47  86 NW5       29.98F
MANISTEE       CLOUDY    50  48  93 CALM      30.00F
OSCODA         PTCLDY    50  47  90 W3        29.94F
PELLSTON       CLOUDY    58  56  93 W5        29.93F
TRAVERSE CITY  MOCLDY    57  46  66 CALM      29.95F
$$
MIZ007>008-015-290800-
EASTERN UPPER MICHIGAN

CITY           SKY/WX    TMP DP  RH WIND       PRES   REMARKS
KINROSS        CLOUDY    54  52  94 CALM      29.91F
MACKINAC ISLAN CLOUDY    60  55  84 W10       29.91F
NEWBERRY       PTCLDY    52  51  97 W3        29.92F
S. S. MARIE    MOCLDY    54  50  86 NW3       29.90F
$$
MIZ004>006-011>014-085-290800-
CENTRAL UPPER MICHIGAN

CITY           SKY/WX    TMP DP  RH WIND       PRES   REMARKS
MANISTIQUE     CLOUDY    57  54  89 NW7       29.94S
ESCANABA       CLEAR     57  52  82 W7        29.96F
MENOMINEE      CLEAR     59  54  82 CALM      29.98S
SAWYER-GWINN   CLEAR     55  52  89 NW6       29.97S
$$
MIZ001>003-009>011-084-290800-
WESTERN UPPER MICHIGAN

CITY           SKY/WX    TMP DP  RH WIND       PRES   REMARKS
IRON MOUNTAIN  PTCLDY    56  52  86 NW3       29.99S
COPPER HARBOR    N/A     58  51  78 NW9       29.96F
$$

ABBREVIATIONS USED IN REMARKS
   TC - TEMPERATURE IN CELSIUS
  WCI - WIND CHILL INDEX
   HX - HEAT INDEX
  VSB - VISIBILITY



USA.gov is the U.S. government's official web portal to all federal, state and local government web resources and services.